Simultaneous Nadir Overpasses (SNOs) Predictions

Prediction of SNOs between LANDSAT-8 and METOP-A Satellite Orbit:

Table of predicted SNOs for the next 14.0 days since TLE Epoch: 10/28/2017
Index Date (LANDSAT-8) Time (LANDSAT-8) Lat,Lon (LANDSAT-8) SZA (LANDSAT-8 ) Date (METOP-A) Time (METOP-A) Lat,Lon (METOP-A) SZA (METOP-A ) Distance(km) Time Diff (sec)
1 10/30/2017 21:38:19 -81.25, 77.34 82.13 10/30/2017 21:37:16 -81.24, 77.16 82.18 3.15 63
2 10/30/2017 22:27:44 81.28,-114.53 97.96 10/30/2017 22:27:54 81.27,-114.37 97.98 2.68 10
3 11/02/2017 17:12:34 -81.25, 143.79 81.23 11/02/2017 17:11:34 -81.25, 143.95 81.24 2.90 60
4 11/02/2017 18:01:59 81.27, -48.12 98.85 11/02/2017 18:02:13 81.27, -48.00 98.87 1.99 14
5 11/05/2017 12:46:49 -81.25,-149.81 80.38 11/05/2017 12:45:53 -81.25,-149.66 80.38 2.73 56
6 11/05/2017 13:36:14 81.27, 18.26 99.70 11/05/2017 13:36:32 81.27, 18.36 99.72 1.58 18
7 11/08/2017 08:21:02 -81.26, -83.07 79.51 11/08/2017 08:20:10 -81.26, -82.90 79.52 2.86 52
8 11/08/2017 09:10:28 81.26, 84.60 100.51 11/08/2017 09:10:50 81.27, 84.69 100.53 1.56 22




NCC Satellite Simultaneous Nadir Overpasses (SNOs) Prediction Service
